Regional Weather Roundup
Issued by NWS

Home | Current Version | Previous Version | Text Only | Print | Product List | Glossary Off
Versions: 1 2 3 4 5 6 7 8 9 10 11 12 13 14 15 16 17 18 19 20 21 22 23 24 25 26 27 28 29 30 31 32 33 34 35 36 37 38 39 40 41 42 43 44 45 46 47 48 49 50

000
ASUS43 KDTX 241710
RWRMI
MICHIGAN HOURLY REGIONAL WEATHER ROUNDUP
NATIONAL WEATHER SERVICE DETROIT/PONTIAC MI
1200 PM EST SAT FEB 24 2018

NOTE: "FAIR" INDICATES FEW OR NO CLOUDS BELOW 12,000 FEET WITH NO
SIGNIFICANT WEATHER AND/OR OBSTRUCTION TO VISIBILITY.

MIZ047>049-052>055-059>063-066>070-074>076-081>083-241800-
SOUTHEAST LOWER MICHIGAN

CITY           SKY/WX    TMP DP  RH WIND       PRES   REMARKS
ADRIAN         CLOUDY    38  31  76 E14       30.19F WCI  30
ALMA           CLOUDY    36  33  88 NE13      30.22S WCI  27
ANN ARBOR      CLOUDY    39  31  72 E10       30.19F WCI  32
BAD AXE        CLOUDY    33  26  76 NE5       30.27R WCI  28
CARO           CLOUDY    35  28  76 E7        30.23F WCI  29
DETROIT CITY   CLOUDY    37  30  75 E10       30.23F WCI  30
DETROIT        CLOUDY    40  30  67 E10       30.22S WCI  33
FLINT          CLOUDY    35  31  85 E14       30.23S WCI  26
GROSSE ILE     CLOUDY    39  32  76 E7        30.21S WCI  34
HILLSDALE      CLOUDY    36  32  87 E13       30.16F WCI  27
HOWELL         CLOUDY    38  32  79 E7        30.20S WCI  32

CITY           SKY/WX    TMP DP  RH WIND       PRES   REMARKS
JACKSON        CLOUDY    38  32  79 E10       30.17F WCI  31
LAMBERTVILLE   CLOUDY    37  33  82 E10G18    30.18F WCI  30
LANSING        CLOUDY    38  31  76 E12       30.19F WCI  30
LAPEER         CLOUDY    34  28  79 E7        30.24F WCI  28
MASON          CLOUDY    39  30  70 E6        30.19F WCI  35
MONROE         CLOUDY    39  32  75 E10       30.19F WCI  32
MT. CLEMENS    CLOUDY    36  31  83 NE10      30.22F WCI  29
PONTIAC        CLOUDY    35  29  78 E8        30.21S WCI  29
PORT HOPE        N/A     33  27  78 NE9       30.25S WCI  25
PORT HURON     CLOUDY    34  27  75 NE7       30.25F WCI  28
TRI CITIES     CLOUDY    35  28  75 E13       30.24F WCI  26
MIDLAND        PTSUNNY   35  28  78 E10       30.25S WCI  27
TROY           CLOUDY    37  31  80 NE9       30.25S WCI  30
SAGINAW HB     CLOUDY    34  30  86 E14       30.24F WCI  24
$$
MIZ043>046-050>051-056>058-064>065-071>073-077>080-241800-
SOUTHWEST LOWER MICHIGAN

CITY           SKY/WX    TMP DP  RH WIND       PRES   REMARKS
BATTLE CREEK   CLOUDY    38  31  76 E10       30.17F WCI  31
BENTON HARBOR  CLOUDY    41  33  73 E10       30.12F
BIG RAPIDS     PTSUNNY   37  26  66 SE12      30.19S WCI  29
COLDWATER      CLOUDY    38  35  88 E12       30.16F WCI  30
FREMONT        CLOUDY    38  24  56 E10       30.16F WCI  31
HOLLAND        CLOUDY    38  30  73 E17       30.16F WCI  28
GRAND RAPIDS   CLOUDY    38  30  73 E17G24    30.17F WCI  28
IONIA          CLOUDY    37  30  74 E13G18    30.19S WCI  29
KALAMAZOO      CLOUDY    40  32  73 E12       30.16F WCI  33
LUDINGTON      FAIR      36  28  73 E9        30.17F WCI  29
MARSHALL       CLOUDY    37  32  81 E6        30.16F WCI  33
MOUNT PLEASANT CLOUDY    38  28  67 E10       30.22S WCI  31
MUSKEGON       PTSUNNY   40  28  62 E16G24    30.16F WCI  31
SOUTH HAVEN    PTSUNNY   41  33  74 E12G20    30.14F
$$
MIZ016>042-241800-
NORTHERN LOWER MICHIGAN

CITY           SKY/WX    TMP DP  RH WIND       PRES   REMARKS
ALPENA         FAIR      35  23  61 NE5       30.26F WCI  31
BEAVER ISLAND  CLOUDY    35  22  59 E5        30.23F WCI  31
BELLAIRE       FAIR      34  25  71 SE5       30.24F WCI  30
CADILLAC       FAIR      33  24  69 E9        30.17F WCI  26
CHARLEVOIX     CLOUDY    33  22  64 E9        30.27S WCI  25
FRANKFORT      FAIR      38  24  56 E6        30.19F WCI  34
GAYLORD        FAIR      30  22  72 NE6       30.20F WCI  24
GRAYLING       FAIR      33  24  67 S7        30.20F WCI  27
HARBOR SPRINGS CLOUDY    34  21  59 SW5       30.24S WCI  30
HOUGHTON LAKE  FAIR      35  23  61 NE6       30.20F WCI  30
MANISTEE       FAIR      38  25  59 SE7       30.17F WCI  33
OSCODA         CLOUDY    33  22  65 NE7       30.26F WCI  27
PELLSTON       FAIR      33  21  61 S3        30.24F
ROGERS CITY    CLOUDY    33  23  67 SE5       30.27S WCI  28
TRAVERSE CITY  FAIR      37  25  61 VRB5      30.21F WCI  33
$$
MIZ007>008-015-241800-
EASTERN UPPER MICHIGAN

CITY           SKY/WX    TMP DP  RH WIND       PRES   REMARKS
KINROSS        CLOUDY    33  19  56 CALM      30.23F
MACKINAC ISLAN CLOUDY    31  22  70 CALM      30.24F
NEWBERRY       PTSUNNY   32  18  56 CALM      30.21F
S. S. MARIE    CLOUDY    33  22  63 SW6       30.23S WCI  28
MUNISING         N/A     35  21  56 S7        30.19F WCI  29
$$
MIZ004>006-011>014-085-241800-
CENTRAL UPPER MICHIGAN

CITY           SKY/WX    TMP DP  RH WIND       PRES   REMARKS
MANISTIQUE     CLOUDY    31  21  65 SE8       30.22F WCI  24
ESCANABA       CLOUDY    34  20  56 S7        30.22F WCI  28
MENOMINEE      PTSUNNY   33  24  69 SE8       30.22S WCI  26
SAWYER-GWINN   MOSUNNY   30  19  64 S8        30.16F WCI  23
$$
MIZ001>003-009>011-084-241800-
WESTERN UPPER MICHIGAN

CITY           SKY/WX    TMP DP  RH WIND       PRES   REMARKS
IRON MOUNTAIN  FAIR      32  20  61 SE10      30.15F WCI  24
HOUGHTON       FAIR      28  15  58 CALM      30.13F
COPPER HARBOR    N/A     26  17  68 N12       30.16F WCI  16
IRONWOOD       FAIR      29  21  72 SE7       30.12F WCI  22
$$

ABBREVIATIONS USED IN REMARKS
   TC - TEMPERATURE IN CELSIUS
  WCI - WIND CHILL INDEX
   HX - HEAT INDEX
  VSB - VISIBILITY





USA.gov is the U.S. government's official web portal to all federal, state and local government web resources and services.